Location: Lugrin
(46.4033°N, 6.6674°E)
Time: 16:41:26
(UTC+00:00)

ATLAS 3B R/B - Pass Details

Date: 18 September 2020
Orbit: 1016 x 1179 km, 63.8° (Epoch: 28 October)

Event Time Altitude Azimuth Distance (km) Brightness Sun altitude
Rises 21:21:58 0° 321° (NW) 3,833 6.6 -34.8°
Reaches altitude 10° 21:24:33 10° 321° (NW) 2,896 5.8 -35.1°
Enters shadow 21:30:03 61° 318° (NW) 1,226 3.1 -35.7°
